Regional Weather Roundup
Issued by NWS

Home | Current Version | Previous Version | Text Only | Print | Product List | Glossary On
Versions: 1 2 3 4 5 6 7 8 9 10 11 12 13 14 15 16 17 18 19 20 21 22 23 24 25 26 27 28 29 30 31 32 33 34 35 36 37 38 39 40 41 42 43 44 45 46 47 48 49 50
866
ASUS43 KMKX 250259
RWRWI

WISCONSIN REGIONAL WEATHER ROUNDUP
NATIONAL WEATHER SERVICE MILWAUKEE/SULLIVAN WI
1000 PM CDT WED MAY 24 2017

NOTE: "FAIR" INDICATES FEW OR NO CLOUDS BELOW 12,000 FEET WITH NO
SIGNIFICANT WEATHER AND/OR OBSTRUCTIONS TO VISIBILITY.

WIZ001-002-006>008-014>016-023>028-250400-
NORTHWEST WISCONSIN

CITY           SKY/WX    TMP DP  RH WIND       PRES   REMARKS
SUPERIOR ARPT  NOT AVBL
ASHLAND        CLEAR     40  39  97 N6        29.78R
HAYWARD        PTCLDY    50  43  77 NE5       29.75R
SIREN          CLOUDY    56  46  67 CALM      29.73R
CUMBERLAND     CLOUDY    54  45  71 E5        29.73R
RICE LAKE      CLOUDY    55  47  74 CALM      29.74R
CHETEK         CLOUDY    55  48  80 E3        29.73R
LADYSMITH      MOCLDY    51  46  84 NE5       29.75R
EAU CLAIRE     PTCLDY    51  47  86 CALM      29.71S
MENOMONIE      MOCLDY    54  49  85 E5        29.72R
NEW RICHMOND   CLOUDY    54  47  78 CALM      29.72R
OSCEOLA        CLOUDY    53  47  80 CALM      29.74S
$$

WIZ003>005-009-010-017-018-250400-
NORTH CENTRAL WISCONSIN

CITY           SKY/WX    TMP DP  RH WIND       PRES   REMARKS
MANITOWISH WTR CLOUDY    51  48  89 NE3       29.74S
ARBOR VITAE    CLOUDY    55  49  81 NE3       29.74R
WOODRUFF       CLOUDY    55  49  81 NE3       29.74R
RHINELANDER    CLOUDY    53  49  86 CALM      29.74S
EAGLE RIVER    CLOUDY    52  45  77 NE3       29.74S
LAND O LAKES   CLOUDY    52  46  80 CALM      29.76S
PHILLIPS       CLOUDY    51  48  89 N3        29.74R
TOMAHAWK       CLOUDY    52  47  83 CALM      29.73S
MEDFORD        CLOUDY    52  47  85 NE3       29.72S
MERRILL        CLOUDY    53  49  87 E3        29.73R
$$

WIZ029-030-035-036-043>047-250400-
CENTRAL WISCONSIN

CITY           SKY/WX    TMP DP  RH WIND       PRES   REMARKS
WAUSAU         CLOUDY    54  49  83 CALM      29.71R
MOSINEE        CLOUDY    52  52 100 NE3       29.72S
MARSHFIELD     PTCLDY    51  47  86 NE3       29.71R
STEVENS POINT  CLOUDY    51  50  95 NE5       29.72R
WAUPACA        CLOUDY    55  51  83 N5        29.70S
WAUTOMA        CLOUDY    53  50  89 N7        29.70S
WISC RAPIDS    CLOUDY    54  49  83 NE6       29.72R
CAMP DOUGLAS   NOT AVBL
$$

WIZ011>013-019>022-031-037>040-048>050-250400-
NORTHEAST WISCONSIN

CITY           SKY/WX    TMP DP  RH WIND       PRES   REMARKS
ANTIGO         CLOUDY    50  50  97 NE6       29.73S
SHAWANO        CLOUDY    55  52  89 N6        29.71R
OCONTO         CLOUDY    52  49  89 N8        29.70R
STURGEON BAY   PTCLDY    52  49  89 N8        29.69S
GREEN BAY      CLOUDY    53  51  93 N14       29.68S
MANITOWOC      PTCLDY    52  48  87 N10       29.65F
APPLETON       CLOUDY    52  50  93 N13       29.67S
CLINTONVILLE   CLOUDY    52  50  93 N3        29.70S
OSHKOSH        MOCLDY    53  49  86 N10       29.66F
$$

WIZ032>034-041-042-053>061-250400-
SOUTHWEST WISCONSIN

CITY           SKY/WX    TMP DP  RH WIND       PRES   REMARKS
LA CROSSE      CLOUDY    57  51  80 NE3       29.70R
SPARTA         CLOUDY    54  51  90 CALM      29.71R
VIROQUA        MOCLDY    52  50  95 MISG      29.70R
BOSCOBEL       CLOUDY    53  51  93 CALM      29.69R
PRAIRIE DU CHI CLOUDY    55  48  77 CALM      29.68S
PLATTEVILLE    PTCLDY    53  53  97 N8        29.67S
$$

WIZ056-057-062-063-064-067-068-250400-
SOUTH CENTRAL WISCONSIN

CITY           SKY/WX    TMP DP  RH WIND       PRES   REMARKS
REEDSBURG      CLOUDY    53  52  96 N6        29.68S
BARABOO/DELLS  CLOUDY    53  48  84 N6        29.69R
LONE ROCK      CLOUDY    56  50  80 NE7       29.68R
MINERAL POINT  MOCLDY    54  54 100 N6        29.67R
MADISON        CLOUDY    53  50  89 N12       29.65S
MIDDLETON      CLOUDY    54  51  91 N6        29.66F
WATERTOWN      CLOUDY    53  52  97 N13       29.64R
MONROE         CLOUDY    52  50  93 N8        29.65R
JANESVILLE     MOCLDY    55  52  88 N10       29.63R
$$

WIZ051-052-058>065-066-070>072-250400-
SOUTHEAST WISCONSIN

CITY           SKY/WX    TMP DP  RH WIND       PRES   REMARKS
MILWAUKEE      MOCLDY    56  50  80 N16G25    29.60S
WAUKESHA       NOT AVBL
MILWAUKEE/TIMM   N/A     54  46  76 N10G21    29.61S
RACINE         CLOUDY    52  48  86 N17G26    29.62S
KENOSHA        MOCLDY    54  49  83 N12G18    29.60R
FOND DU LAC    CLOUDY    54  49  83 N13       29.66S
SHEBOYGAN      CLOUDY    53  51  93 N10       29.63S
WEST BEND      RAIN      52  52 100 N7        29.63S
JUNEAU         CLOUDY    52  50  90 N13       29.66R
$$

LSZ147-162-250400-
LAKE SUPERIOR

STATION/POSITION TIME  TEMP    WIND        PRES    WAVE
                       AIR SEA DIR/SP/G            HT/PER
                 (UTC) (F)     (DEG/KT/KT) (MB)    (FT/S)
$$

LMZ867-665-643>646-250400-
LAKE MICHIGAN

STATION/POSITION TIME  TEMP    WIND        PRES    WAVE
                       AIR SEA DIR/SP/G            HT/PER
                 (UTC) (F)     (DEG/KT/KT) (MB)    (FT/S)
$$

TC  - TEMPERATURE IN CELSIUS
VSB - VISIBILITY IN STATUTE MILES
WCI - WIND CHILL INDEX
HX  - HEAT INDEX





USA.gov is the U.S. government's official web portal to all federal, state and local government web resources and services.